Location: Ash Observatory
(39.7321°N, 75.2004°W)
Time: 11:40:51
(UTC-04:00)

Envisat - Pass Details

Date: 27 March 2019
Orbit: 764 x 766 km, 98.2° (Epoch: 25 April)

Event Time Altitude Azimuth Distance (km) Brightness Sun altitude
Rises 19:50:47 0° 174° (S) 3,218 6.1 -6.8°
Reaches altitude 10° 19:53:05 10° 177° (S) 2,296 5.4 -7.2°
Maximum altitude 19:58:06 63° 259° (WSW) 851 3.6 -8.1°
Drops below altitude 10° 20:03:10 10° 341° (NNW) 2,311 5.9 -9.1°
Sets 20:05:30 0° 344° (NNW) 3,241 6.6 -9.5°
